Location: Newark
(49.4900°N, 20.6656°E)
Time: 17:20:55
(UTC+00:00)

STARLINK-1695 - Pass Details

Date: 24 September 2020
Orbit: 378 x 381 km, 53.0° (Epoch: 30 October)

Event Time Altitude Azimuth Distance (km) Brightness Sun altitude
Exits shadow 01:37:46 20° 58° (ENE) 965 5.6 -26.7°
Drops below altitude 10° 01:38:55 10° 67° (ENE) 1,398 6.7 -26.6°
Sets 01:41:01 0° 74° (ENE) 2,252 7.9 -26.3°
